Flag for Germany Weather past 2 weeks in Fürth, Bavaria, Germany

Now
75 °F

Clear.


Feels Like: 78 °F
Forecast: 66 / 92 °F
Wind: 5 mph from East

Location: Nuernberg

Current Time: Jul 3, 2015 at 12:08:23 AM

Latest Report: Jul 2, 2015 at 11:20 PM


Visibility: 10 mi

Pressure: 30.21 "Hg

Humidity: 54%

Dew point: 57 °F

Location of FürthLocation

Historic Weather in Fürth — Graph

°F

Fürth temperature yesterday

Maximum temperature yesterday: 91 °F (at 4:20 PM)
Minimum temperature yesterday: 64 °F (at 3:50 AM)
Average temperature yesterday: 79 °F

Past Weeks' High & Low Weather Summary

 TemperatureHumidityPressure
High91 °F (Jul 2, 4:20 PM)100% (Jun 22, 4:20 AM)30.24 "Hg (Jun 22, 4:20 AM)
Low45 °F (Jun 25, 5:20 AM)20% (Jun 30, 4:20 PM)29.71 "Hg (Jun 23, 12:20 AM)
Average62 °F69%30.09 "Hg
* Reported Jun 17 10:20 PM — Jul 2 10:20 PM, Fürth, Weather by CustomWeather, © 2015

Note: Actual official high and low records may vary slightly from our data, if they occured in-between our weather recording intervals... More about our weather records

Advertising

Fürth weather history for previous 24 hours

 ConditionsComfort  
Time TempWeatherWind HumidityBarometerVisibility
10:20 PM
Thu, Jul 2
79 °FPassing clouds.5 mph48%30.21 "HgN/A
9:50 PM81 °FSunny.5 mph45%30.18 "Hg10 mi
9:20 PM82 °FSunny.3 mph42%30.18 "Hg10 mi
8:50 PM84 °FSunny.2 mph40%30.15 "Hg10 mi
8:20 PM86 °FSunny.3 mph35%30.15 "Hg10 mi
7:50 PM88 °FSunny.5 mph33%30.15 "Hg10 mi
7:20 PM90 °FPassing clouds.5 mph29%30.15 "HgN/A
6:50 PM90 °FSunny.7 mph29%30.15 "Hg10 mi
6:20 PM90 °FPassing clouds.6 mph29%30.15 "HgN/A
5:50 PM90 °FPassing clouds.6 mph27%30.15 "HgN/A
5:20 PM90 °FSunny.5 mph27%30.15 "Hg10 mi
4:50 PM90 °FPassing clouds.7 mph31%30.15 "HgN/A
4:20 PM91 °FSunny.5 mph30%30.15 "Hg10 mi
3:50 PM90 °FPassing clouds.8 mph27%30.15 "HgN/A
3:20 PM90 °FPassing clouds.7 mph31%30.18 "HgN/A
2:50 PM90 °FPassing clouds.9 mph31%30.18 "HgN/A
2:20 PM88 °FPassing clouds.7 mph33%30.18 "HgN/A
1:50 PM88 °FPassing clouds.9 mph33%30.18 "HgN/A
1:20 PM86 °FPassing clouds.8 mph35%30.18 "HgN/A
12:50 PM86 °FPassing clouds.7 mph38%30.18 "HgN/A
12:20 PM86 °FSunny.6 mph38%30.18 "Hg10 mi
11:50 AM84 °FPassing clouds.7 mph43%30.18 "HgN/A
11:20 AM84 °FPassing clouds.8 mph40%30.18 "HgN/A
10:50 AM82 °FSunny.6 mph45%30.18 "Hg10 mi
10:20 AM81 °FPassing clouds.5 mph48%30.21 "HgN/A
9:50 AM79 °FPassing clouds.5 mph51%30.21 "HgN/A
9:20 AM77 °FPassing clouds.3 mph54%30.21 "HgN/A
8:50 AM75 °FPassing clouds.6 mph54%30.21 "HgN/A
8:20 AM73 °FSunny.6 mph57%30.21 "Hg10 mi
7:50 AM72 °FPassing clouds.7 mph61%30.21 "HgN/A
7:20 AM70 °FSunny.7 mph64%30.18 "Hg10 mi
6:50 AM68 °FSunny.6 mph69%30.18 "Hg10 mi
6:20 AM64 °FSunny.2 mph78%30.18 "Hg10 mi
5:50 AM66 °FClear.2 mph68%30.18 "Hg10 mi
5:20 AM66 °FClear.2 mph68%30.18 "Hg10 mi
4:50 AM66 °FPassing clouds.3 mph68%30.18 "HgN/A
4:20 AM66 °FClear.8 mph68%30.18 "Hg10 mi
3:50 AM64 °FClear.9 mph73%30.15 "Hg10 mi
3:20 AM66 °FClear.9 mph68%30.15 "Hg10 mi
2:50 AM68 °FClear.9 mph64%30.15 "Hg10 mi
2:20 AM68 °FClear.9 mph64%30.18 "Hg10 mi
1:50 AM72 °FPassing clouds.8 mph61%30.15 "HgN/A
1:20 AM72 °FClear.8 mph61%30.15 "Hg10 mi
12:50 AM68 °FClear.7 mph69%30.15 "Hg10 mi
Weather by CustomWeather, © 2015

See weather overviewHow to use our weather pages